TimeEST,TemperatureF,Dew PointF,Humidity,Sea Level PressureIn,VisibilityMPH,Wind Direction,Wind SpeedMPH,Gust SpeedMPH,PrecipitationIn,Events,Conditions,WindDirDegrees,DateUTC
12:15 AM,50.0,32.0,50,30.18,10.0,NNE,4.6,-,N/A,,Clear,30,2012-11-23 05:15:00
12:35 AM,50.0,35.6,58,30.18,10.0,NNE,4.6,-,N/A,,Clear,30,2012-11-23 05:35:00
12:55 AM,51.8,35.6,54,30.17,10.0,NNE,5.8,-,N/A,,Clear,20,2012-11-23 05:55:00
1:15 AM,51.8,35.6,54,30.17,10.0,North,3.5,-,N/A,,Clear,360,2012-11-23 06:15:00
1:35 AM,44.6,35.6,71,30.18,10.0,Calm,Calm,-,N/A,,Clear,0,2012-11-23 06:35:00
1:55 AM,46.4,33.8,62,30.18,10.0,NW,4.6,-,N/A,,Clear,320,2012-11-23 06:55:00
2:15 AM,46.4,33.8,62,30.17,10.0,NW,3.5,-,N/A,,Clear,310,2012-11-23 07:15:00
2:55 AM,48.2,35.6,62,30.17,10.0,NNW,4.6,-,N/A,,Clear,330,2012-11-23 07:55:00
3:15 AM,46.4,35.6,66,30.17,10.0,NNW,4.6,-,N/A,,Clear,340,2012-11-23 08:15:00
3:35 AM,48.2,35.6,62,30.17,10.0,NNW,6.9,-,N/A,,Clear,340,2012-11-23 08:35:00
3:55 AM,46.4,35.6,66,30.17,10.0,NNW,5.8,-,N/A,,Clear,330,2012-11-23 08:55:00
4:15 AM,46.4,37.4,71,30.16,10.0,NNW,5.8,-,N/A,,Clear,340,2012-11-23 09:15:00
4:35 AM,46.4,37.4,71,30.16,10.0,NNW,5.8,-,N/A,,Clear,340,2012-11-23 09:35:00
4:55 AM,46.4,37.4,71,30.16,10.0,NNW,4.6,-,N/A,,Clear,340,2012-11-23 09:55:00
5:15 AM,46.4,37.4,71,30.16,10.0,Calm,Calm,-,N/A,,Clear,0,2012-11-23 10:15:00
5:35 AM,46.4,37.4,71,30.17,10.0,NNW,5.8,-,N/A,,Clear,330,2012-11-23 10:35:00
5:55 AM,46.4,37.4,71,30.18,10.0,North,3.5,-,N/A,,Clear,350,2012-11-23 10:55:00
6:15 AM,42.8,35.6,76,30.18,10.0,Calm,Calm,-,N/A,,Clear,0,2012-11-23 11:15:00
2:35 PM,69.8,32.0,25,30.13,9.0,NNW,9.2,-,N/A,,Clear,340,2012-11-23 19:35:00
2:55 PM,69.8,32.0,25,30.12,9.0,NNW,8.1,-,N/A,,Clear,330,2012-11-23 19:55:00
3:15 PM,69.8,32.0,25,30.12,9.0,North,10.4,-,N/A,,Clear,350,2012-11-23 20:15:00
3:35 PM,69.8,32.0,25,30.11,9.0,NNE,8.1,-,N/A,,Clear,20,2012-11-23 20:35:00
3:55 PM,69.8,32.0,25,30.11,10.0,North,8.1,-,N/A,,Clear,360,2012-11-23 20:55:00
4:15 PM,69.8,33.8,27,30.11,9.0,NNE,6.9,-,N/A,,Clear,20,2012-11-23 21:15:00
4:35 PM,69.8,33.8,27,30.11,10.0,North,6.9,-,N/A,,Clear,360,2012-11-23 21:35:00
4:55 PM,69.8,33.8,27,30.12,9.0,North,6.9,-,N/A,,Clear,350,2012-11-23 21:55:00
5:15 PM,68.0,35.6,30,30.12,9.0,North,3.5,-,N/A,,Clear,350,2012-11-23 22:15:00
5:35 PM,66.2,35.6,32,30.12,10.0,NW,3.5,-,N/A,,Clear,320,2012-11-23 22:35:00
5:55 PM,64.4,37.4,37,30.12,10.0,Calm,Calm,-,N/A,,Clear,0,2012-11-23 22:55:00
6:15 PM,57.2,42.8,59,30.13,10.0,Calm,Calm,-,N/A,,Clear,0,2012-11-23 23:15:00
6:35 PM,55.4,42.8,63,30.13,10.0,Calm,Calm,-,N/A,,Clear,0,2012-11-23 23:35:00
6:55 PM,53.6,42.8,67,30.13,10.0,Calm,Calm,-,N/A,,Clear,0,2012-11-23 23:55:00
7:35 PM,55.4,42.8,63,30.14,10.0,WNW,3.5,-,N/A,,Clear,290,2012-11-24 00:35:00
7:55 PM,50.0,42.8,76,30.14,10.0,Calm,Calm,-,N/A,,Clear,0,2012-11-24 00:55:00
8:15 PM,51.8,42.8,71,30.15,10.0,Calm,Calm,-,N/A,,Clear,0,2012-11-24 01:15:00
8:35 PM,55.4,42.8,63,30.14,10.0,WNW,4.6,-,N/A,,Clear,290,2012-11-24 01:35:00
8:55 PM,48.2,42.8,82,30.14,10.0,Calm,Calm,-,N/A,,Clear,0,2012-11-24 01:55:00
9:15 PM,48.2,42.8,82,30.14,10.0,Calm,Calm,-,N/A,,Clear,0,2012-11-24 02:15:00
9:35 PM,48.2,42.8,82,30.14,10.0,Calm,Calm,-,N/A,,Clear,0,2012-11-24 02:35:00
9:55 PM,48.2,42.8,82,30.14,10.0,Calm,Calm,-,N/A,,Clear,0,2012-11-24 02:55:00
10:15 PM,50.0,41.0,71,30.14,10.0,West,4.6,-,N/A,,Clear,280,2012-11-24 03:15:00
10:35 PM,51.8,41.0,67,30.14,10.0,West,3.5,-,N/A,,Clear,280,2012-11-24 03:35:00
10:55 PM,50.0,41.0,71,30.14,10.0,West,3.5,-,N/A,,Clear,270,2012-11-24 03:55:00
11:15 PM,46.4,41.0,81,30.13,10.0,WSW,3.5,-,N/A,,Clear,240,2012-11-24 04:15:00
11:55 PM,44.6,41.0,87,30.13,10.0,Calm,Calm,-,N/A,,Clear,0,2012-11-24 04:55:00